EHI
0 0 0 0 0 0 0 0 0 0 0 0 0 0 0 0 0 0 0 0 0 0 0 0 0 0 0 0 0 0 0 0 0 0 0 0 0 0 0 0 0 0 0 0
0 0 0 0 0 0 0 0 0 0 0 0 0 0 0 0 0 0 0 0 0 0 0 0 0 0 0 0 0 0 0 0 0 0 0 0 0 0 0 0 0 0 0 0
0 0 0 0 0 0 0 0 0 0 0 0 0 0 0 0 0 0 0 0 0 0 0 0 0 0 0 0 0 0 0 0 0 0 0 0 0 0 0 0 0 0 0 0
0 0 0 0 0 0 0 0 0 0 0 0 0 0 0 0 0 0 0 0 0 0 0 0 0 0 0 0 0 0 0 0 0 0 0 0 0 0 0 0 0 0 0 0
0 0 0 0 0 0 0 0 0 0 0 0 0 0 0 0 0 0 0 0 0 0 0 0 0 0 0 0 0 0 0 0 0 0 0 0 0 0 0 0 0 0 0 0
0 0 0 0 0 0 0 0 0 0 0 0 0 0 0 0 0 0 0 0 0 0 0 0 0 0 0 0 0 0 0 0 0 0 0 0 0 0 0 0 0 0 0 0
0 0 0 0 0 0 0 0 0 0 0 0 0 0 0 0 0 0 0 0 0 0 0 0 0 0 0 0 0 0 0 0 0 0 0 0 0 0 0 0 0 0 0 0
0 0 0 0 0 0 0 0 0 0 0 0 0 0 0 0 0 0 0 0 0 0 0 0 0 0 0 0 0 0 0 0 0 0 0 0 0 0 0 0 0 0 0 0
0 0 0 0 0 0 0 0 0 0 0 0 0 0 0 0 0 0 0 0 0 0 0 0 0 0 0 0 0 0 0 0 0 0 0 0 0 0 0 0 0 0 0 0
0 0 0 0 0 0 0 0 0 0 0 0 0 0 0 0 0 0 0 0 0 0 0 0 0 0 0 0 0 0 0 0 0 0 0 0 0 0 0 0 0 0 0 0
0 0 0 0 0 0 0 0 0 0 0 0 0 0 0 0 0 0 0 0 0 0 0 0 0 0 0 0 0 0 0 0 0 0 0 0 0 0 0 0 0 0 0 0
0 0 0 0 0 0 0 0 0 0 0 0 0 0 0 0 0 0 0 0 0 0 0 0 0 0 0 0 0 0 0 0 0 0 0 0 0 0 0 0 0 0 0 0
0 0 0 0 0 0 0 0 0 0 0 0 0 0 0 0 0 0 0 0 0 0 0 0 0 0 0 0 0 0 0 0 0 0 0 0 0 0 0 0 0 0 0 0
0 0 0 0 0 0 0 0 0 0 0 0 0 0 0 0 0 0 0 0 0 0 0 0 0 0 0 0 0 0 0 0 0 0 0 0 0 0 0 0 0 0 0 0
0 0 0 0 0 0 0 0 0 0 0 0 0 0 0 0 0 0 0 0 0 0 0 0 0 0 0 0 0 0 0 0 0 0 0 0 0 0 0 0 0 0 0 0
0 0 0 0 0 0 0 0 0 0 0 0 0 0 0 0 0 0 0 0 0 0 0 0 0 0 0 0 0 0 0 0 0 0 0 0 0 0 0 0 0 0 0 0
0 0 0 0 0 0 0 0 0 0 0 0 0 0 0 0 0 0 0 0 0 0 0 0 0 0 0 0 0 0 0 0 0 0 0 0 0 0 0 0 0 0 0 0
0 0 0 0 0 0 0 0 0 0 0 0 0 0 0 0 0 0 0 0 0 0 0 0 0 0 0 0 0 0 0 0 0 0 0 0 0 0 0 0 0 0 0 0
0 0 0 0 0 0 0 0 0 0 0 0 0 0 0 0 0 0 0 0 0 0 0 0 0 0 0 0 0 0 0 0 0 0 0 0 0 0 0 0 0 0 0 0
0 0 0 0 0 0 0 0 0 0 0 0 0 0 0 0 0 0 0 0 0 0 0 0 0 0 0 0 0 0 0 0 0 0 0 0 0 0 0 0 0 0 0 0
0 0 0 0 0 0 0 0 0 0 0 0 0 0 0 0 0 0 0 0 0 0 0 0 0 0 0 0 0 0 0 0 0 0 0 0 0 0 0 0 0 0 0 0
0 0 0 0 0 0 0 0 0 0 0 0 0 0 0 0 0 0 0 0 0 0 0 0 0 0 0 0 0 0 0 0 0 0 0 0 0 0 0 0 0 0 0 0
0 0 0 0 0 0 0 0 0 0 0 0 0 0 0 0 0 0 0 0 0 0 0 0 0 0 0 0 0 0 0 0 0 0 0 0 0 0 0 0 0 0 0 0
0 0 0 0 0 0 0 0 0 0 0 0 0 0 0 0 0 0 0 0 0 0 0 0 0 0 0 0 0 0 0 0 0 0 0 0 0 0 0 0 0 0 0 0
0 0 0 0 0 0 0 0 0 0 0 0 0 0 0 0 0 0 0 0 0 0 0 0 0 0 0 0 0 0 0 0 0 0 0 0 0 0 0 0 0 0 0 0
0 0 0 0 0 0 0 0 0 0 0 0 0 0 0 0 0 0 0 0 0 0 0 0 0 0 0 0 0 0 0 0 0 0 0 0 0 0 0 0 0 0 0 0
Wind_Speed
2 4 5 6 7 4 3 6 7 5 1 5 9 11 9 7 8 9 8 7 7 6 4 3 3 3 3 3 4 4 4 4 3 3 2 2 1 1 1 1 2 2 2 2
4 6 4 3 5 5 5 6 7 3 2 5 8 12 10 9 10 9 9 8 7 6 5 4 4 4 4 4 4 4 4 4 4 3 2 1 1 1 1 1 1 1 1 1
6 1 2 5 6 7 7 8 6 4 3 4 7 10 9 7 8 8 8 8 7 7 7 6 5 4 4 4 4 4 4 4 4 3 2 2 2 1 1 1 0 0 0 0
4 2 4 5 6 7 7 5 6 5 5 4 4 7 6 6 7 7 8 7 7 6 6 6 6 5 5 5 4 4 4 4 4 4 4 4 2 2 2 1 1 1 1 1
4 3 4 7 6 7 3 1 4 5 6 6 6 7 6 4 7 8 7 7 6 6 6 6 6 6 5 4 4 4 5 5 5 5 5 4 3 2 1 1 2 2 1 2
3 2 3 3 2 4 4 3 2 3 4 7 7 9 7 4 6 5 5 5 5 5 6 5 5 4 4 4 4 4 5 5 5 5 4 4 4 3 2 2 3 2 2 2
4 4 2 2 4 5 6 5 3 5 5 6 4 7 8 3 4 5 5 5 4 4 5 5 5 5 4 4 5 5 5 5 5 5 4 4 4 4 4 3 3 3 2 2
5 5 5 4 5 5 8 7 5 5 5 3 4 8 5 1 3 4 4 4 4 4 4 4 4 4 4 5 5 5 5 5 5 5 4 4 3 3 3 3 3 3 3 2
6 3 2 3 2 4 6 7 3 2 2 5 6 6 6 4 4 4 4 4 4 3 3 3 4 4 4 4 5 5 6 5 5 5 4 4 4 4 3 3 3 3 3 2
3 3 2 1 3 2 2 3 4 5 5 7 6 7 5 4 4 4 4 4 3 3 3 3 3 3 3 4 4 5 5 6 5 5 4 3 4 4 3 3 3 3 3 3
3 4 2 3 6 7 6 5 5 4 4 5 5 4 1 3 3 3 4 3 3 2 2 3 3 3 3 3 4 4 5 5 5 5 4 4 4 4 4 4 4 3 3 3
3 3 4 4 1 3 5 7 7 6 6 5 5 4 2 2 2 3 3 2 2 2 2 2 2 2 2 3 3 4 4 5 4 4 4 5 4 4 4 4 4 3 4 4
4 4 3 3 4 4 5 6 6 4 3 5 7 5 3 1 1 2 3 3 2 3 3 2 2 2 2 3 3 3 4 4 4 4 4 4 4 4 5 4 4 4 4 4
4 5 7 7 2 4 6 7 8 8 7 8 11 10 5 4 5 4 4 4 4 4 4 3 3 3 3 3 3 3 3 3 4 4 4 5 5 5 4 4 4 4 4 4
3 5 6 6 4 3 6 7 10 12 11 10 10 11 11 7 6 6 5 4 4 5 5 5 4 4 3 3 3 3 3 3 4 4 5 5 4 4 4 5 5 4 4 5
3 4 3 5 5 6 8 11 12 13 13 13 13 15 11 7 6 6 5 5 6 6 6 5 5 5 5 5 4 4 3 3 4 5 5 4 4 4 5 5 4 4 5 5
4 4 4 5 3 5 11 12 14 12 11 11 14 12 6 5 6 6 6 6 7 7 6 6 6 6 5 5 5 5 4 3 4 5 4 4 4 5 4 4 4 5 5 5
5 5 3 3 3 10 4 0 6 9 10 11 10 8 6 6 6 7 7 7 7 7 6 6 6 6 5 5 4 4 4 4 5 5 5 4 4 4 4 4 5 5 4 5
5 5 4 4 5 8 5 3 5 7 8 9 12 11 7 4 5 6 5 5 6 7 6 6 5 5 5 5 4 4 4 5 5 5 5 4 4 5 5 5 5 4 4 4
2 3 4 4 5 7 2 2 2 3 6 4 7 8 5 3 5 4 2 4 5 6 5 5 5 5 5 4 4 4 5 5 5 5 5 4 5 5 5 5 5 4 4 4
5 4 6 6 6 7 2 2 4 5 2 1 4 5 5 6 6 5 5 5 6 5 5 5 5 5 4 4 4 5 5 6 5 4 4 4 5 5 5 4 4 4 3 3
7 6 7 6 7 7 4 6 6 3 2 2 3 4 5 6 6 6 6 6 5 5 5 5 4 5 4 4 5 6 6 5 4 4 4 4 4 4 3 4 3 3 3 3
7 6 4 7 6 2 5 6 5 3 4 4 4 5 5 6 7 6 6 6 6 6 5 4 5 5 4 4 5 6 5 3 3 3 4 3 3 3 3 4 4 3 3 3
5 3 4 6 9 7 7 8 7 6 7 6 6 6 6 6 7 7 6 6 5 5 5 4 4 5 5 4 4 5 3 3 4 4 3 3 3 3 3 3 3 3 3 3
5 6 5 8 8 7 7 8 8 8 7 7 7 6 7 7 7 7 7 6 6 5 5 4 5 5 5 4 4 3 3 3 4 3 3 3 3 3 3 3 3 3 3 3
7 8 8 8 7 6 6 5 6 7 8 7 7 7 7 7 8 7 7 6 5 5 5 5 5 5 5 4 4 3 3 4 4 3 3 3 2 2 2 2 1 1 2 2
Wind_Direction
164 199 210 211 220 252 242 236 246 253 260 247 250 258 256 238 227 231 226 219 216 220 220 203 190 175 167 172 173 169 163 155 148 144 149 144 142 138 118 92 83 76 69 62
186 223 235 226 213 215 226 239 250 252 245 256 266 266 259 239 235 235 233 227 219 211 204 196 192 181 180 179 178 174 173 167 163 158 149 153 163 169 120 101 95 76 72 64
211 209 198 194 196 213 231 240 247 255 273 246 276 262 237 229 231 237 237 234 228 217 210 204 200 197 189 188 189 184 178 173 168 155 137 131 133 144 172 172 170 305 274 149
223 219 194 200 213 222 235 235 240 242 248 249 250 274 239 227 230 231 231 226 224 218 214 210 206 203 199 195 189 190 184 179 172 168 173 176 184 198 206 209 217 219 232 228
204 201 206 218 225 217 220 194 227 240 246 259 229 253 259 222 242 238 229 226 223 221 216 212 208 204 198 190 188 190 184 183 184 187 189 194 201 209 197 200 209 217 220 231
225 205 234 232 216 208 165 159 172 214 230 246 227 233 260 223 244 246 227 223 221 216 217 213 204 197 191 183 183 188 187 190 190 193 197 203 202 201 202 213 215 217 217 229
216 208 201 204 178 177 191 192 208 210 215 235 187 232 254 256 254 254 242 225 215 210 207 205 200 196 192 189 190 191 193 196 194 198 202 206 208 213 218 221 220 224 224 230
217 215 191 202 212 202 201 213 223 238 237 225 195 236 250 274 278 268 248 230 221 214 206 202 202 204 201 200 200 198 199 200 199 202 205 207 211 219 226 229 234 235 240 240
218 219 145 200 228 212 193 213 250 267 289 257 232 248 267 233 245 236 218 208 211 210 204 200 200 203 205 209 210 208 203 204 203 205 207 208 211 222 227 229 235 241 245 244
218 229 211 194 185 196 250 179 179 208 232 243 243 242 238 206 219 207 201 203 206 204 210 212 204 206 212 219 217 213 211 209 208 207 208 212 216 221 227 228 232 242 248 247
208 215 201 190 205 199 180 189 211 212 248 254 254 240 196 226 217 205 208 210 215 215 223 222 223 223 221 223 219 214 213 211 209 209 211 215 217 218 221 223 227 235 242 245
192 217 230 221 210 278 234 219 206 218 218 235 264 270 85 234 233 223 232 245 257 251 251 244 239 233 228 224 223 219 215 213 214 211 214 218 217 216 220 225 227 230 238 241
168 190 214 208 198 202 225 220 215 225 229 223 238 251 95 192 248 249 255 270 281 275 267 255 248 247 245 237 232 229 222 218 214 211 215 219 218 219 225 229 229 229 234 239
186 208 229 246 262 177 205 212 207 208 226 234 239 257 258 267 277 276 271 274 286 282 274 263 255 252 254 250 240 233 227 219 214 213 217 222 224 225 228 229 229 230 233 238
195 227 232 255 269 236 235 225 211 216 230 242 251 252 262 270 274 274 274 273 276 275 269 264 262 260 255 254 247 239 233 224 217 218 221 227 229 227 227 228 228 229 234 238
203 222 219 247 246 246 256 244 229 231 237 245 259 264 268 276 273 265 258 257 267 272 270 269 267 262 255 249 246 242 239 231 223 225 228 230 229 227 227 228 228 229 233 235
188 189 216 250 237 254 254 237 223 223 223 225 239 252 265 266 264 265 264 259 265 270 274 273 269 262 258 253 247 244 239 232 226 229 231 228 226 227 229 228 227 230 232 232
189 188 213 236 204 239 254 262 217 222 235 228 245 259 259 263 279 279 265 263 272 275 275 273 270 267 263 253 246 245 236 229 230 232 232 229 225 228 229 226 226 230 231 232
211 195 200 209 237 265 268 220 199 210 250 229 237 251 260 281 287 268 249 257 268 275 277 274 270 267 263 251 239 235 236 233 233 235 233 230 227 227 225 226 227 227 228 233
158 196 207 205 232 249 266 135 173 200 256 220 218 235 243 235 259 274 284 282 288 285 281 279 276 271 262 253 232 225 232 234 237 239 238 232 227 225 225 226 227 226 230 236
171 189 212 221 240 262 277 140 169 209 267 129 213 228 224 233 263 297 295 288 288 289 287 283 275 270 263 251 231 230 233 237 243 243 238 230 224 224 225 222 221 223 226 234
186 188 199 203 226 246 150 161 204 250 326 255 246 243 245 257 273 280 280 282 285 285 284 281 276 273 267 244 230 235 239 243 238 231 229 225 222 219 215 213 215 217 219 226
211 209 202 209 231 294 179 213 243 275 266 263 258 255 251 261 267 271 276 277 276 276 278 281 274 274 265 245 234 238 243 235 226 223 222 218 216 215 208 206 206 209 213 221
218 215 221 244 253 254 242 251 260 258 259 268 271 266 252 253 263 270 276 277 275 275 273 273 271 268 266 255 244 242 235 220 217 218 216 210 208 207 202 204 206 209 210 214
212 185 215 247 262 276 257 244 251 258 260 266 269 264 256 254 262 266 271 272 271 272 270 264 258 263 268 263 251 240 221 208 211 212 208 207 211 208 203 211 219 221 223 225
206 200 208 236 235 237 256 255 250 251 258 259 263 266 259 251 257 264 264 265 266 266 265 262 261 263 265 258 250 240 222 206 201 203 203 204 206 204 203 199 209 240 239 247